Location: Ash Shall?l al Awwal
(24.0167°N, 32.8667°E)
Time: 03:33:23
(UTC+00:00)

Nadezhda 3 Rocket - Pass Details

Date: 02 March 2021
Orbit: 957 x 999 km, 82.9° (Epoch: 12 April)

Event Time Altitude Azimuth Distance (km) Brightness Sun altitude
Rises 17:08:03 0° 354° (N) 3,717 7.1 -18.2°
Reaches altitude 10° 17:10:35 10° 353° (N) 2,767 6.5 -18.8°
Maximum altitude 17:16:56 82° 267° (W) 1,009 4.1 -20.2°
Drops below altitude 10° 17:23:17 10° 180° (S) 2,751 6.3 -21.7°
Sets 17:25:47 0° 179° (S) 3,694 7.0 -22.2°
